RH
97 96 94 94 93 87 82 80 71 67 64 63 56 63 67 74 66 53 80 80 74 66 68 67 44 37 42 38 45 58 64 62 67 69 67 60 56 52 54 40 37 38 51 56 62 61 49 34 34 34 32 32 31 30
93 96 96 93 90 86 80 76 76 74 71 67 62 74 74 72 63 54 72 71 70 98 92 80 63 38 38 37 45 61 54 58 64 58 60 62 64 57 43 48 39 38 35 40 40 39 31 28 28 28 27 28 31 33
80 76 76 76 78 78 81 80 86 79 74 73 74 86 79 70 63 49 83 89 86 97 97 84 69 48 45 42 49 58 61 58 59 61 69 64 56 55 45 41 39 36 34 38 38 36 35 32 31 31 30 31 34 38
74 73 67 70 75 77 76 81 82 83 80 76 83 89 78 73 60 49 83 84 79 91 89 90 81 58 46 45 61 68 63 58 60 63 69 66 58 44 40 34 36 34 35 38 41 42 40 39 37 36 37 39 40 40
79 77 79 83 88 90 86 87 90 89 90 82 75 71 66 62 55 76 95 91 94 81 78 81 86 74 54 61 62 66 71 59 58 59 68 65 53 49 44 39 37 32 35 38 40 37 38 41 42 44 44 46 46 46
64 70 78 83 88 85 80 80 85 85 87 85 79 71 66 56 72 95 98 91 71 83 96 98 90 82 71 71 73 72 68 63 57 66 73 61 53 46 46 47 35 34 34 33 37 37 38 42 45 47 48 49 49 48
64 62 71 74 73 64 59 67 78 83 84 80 76 69 57 54 62 78 79 73 87 98 96 98 94 84 87 87 95 90 76 70 60 65 68 67 64 55 52 49 41 41 41 38 39 40 46 46 49 51 50 51 52 56
75 69 62 64 62 56 59 62 67 73 72 74 70 61 60 68 80 90 91 93 92 96 96 98 98 96 87 89 87 89 83 78 80 79 76 75 71 62 58 51 48 48 47 49 49 48 49 53 55 52 54 58 62 66
90 87 68 53 49 52 53 56 57 58 61 56 49 56 67 80 83 78 80 93 97 94 99 98 98 95 89 84 80 79 79 86 84 81 80 75 72 67 59 54 53 53 54 58 59 57 56 56 56 61 66 70 72 73
88 85 75 63 53 52 53 53 52 50 53 71 69 69 66 69 93 98 98 98 99 98 96 96 96 93 84 83 85 83 82 80 75 74 69 69 70 67 64 62 62 65 64 69 69 64 62 62 68 74 78 79 78 76
83 88 83 80 75 64 55 64 77 91 88 86 93 98 97 96 97 99 98 96 91 89 92 93 87 85 85 83 83 80 77 72 72 71 71 71 68 67 67 70 73 73 75 77 73 72 71 74 79 83 85 83 81 80
76 75 75 76 80 85 84 81 73 89 92 96 93 93 95 98 98 94 90 84 82 75 67 71 73 70 69 69 73 78 77 77 76 73 75 73 71 73 76 81 81 87 88 84 80 80 83 85 87 86 86 84 80 77
90 83 77 73 74 80 90 92 99 98 98 97 96 97 93 88 88 85 85 79 77 73 71 65 66 80 90 84 85 85 85 87 81 83 82 80 84 82 84 89 94 90 86 85 87 88 89 89 87 87 82 83 85 80
91 93 94 88 82 77 80 82 83 87 86 81 86 91 84 87 86 87 86 86 82 78 72 78 90 90 91 94 97 96 98 95 94 89 84 85 87 87 87 89 89 89 90 91 92 94 92 89 87 88 87 83 78 77
94 92 91 94 96 97 93 84 73 69 71 81 81 91 92 91 90 89 84 79 78 80 79 82 87 92 98 98 96 93 94 92 90 89 91 93 92 90 90 91 91 93 94 94 92 91 92 95 93 88 85 82 77 76
93 93 92 92 91 91 90 88 88 86 88 92 94 93 93 93 91 88 86 88 89 87 87 86 85 88 94 94 91 94 90 90 88 89 89 89 90 92 95 96 97 97 95 91 92 96 94 89 86 82 80 78 75 71
88 96 93 92 93 92 92 88 88 91 94 98 99 99 94 93 92 91 97 99 98 97 96 92 95 97 98 98 97 96 96 95 93 95 97 98 98 98 98 98 98 95 93 96 96 91 88 86 86 85 79 76 70 67
82 86 88 88 86 86 89 92 89 87 92 94 95 95 96 95 97 98 98 98 98 98 98 98 98 97 97 97 97 97 96 96 98 98 98 98 97 96 96 97 98 98 97 94 92 92 91 89 88 82 78 75 73 68
58 56 62 71 77 83 88 93 92 94 93 93 94 94 95 97 98 98 98 98 98 97 96 97 96 97 97 97 97 97 97 98 98 97 96 95 95 95 98 98 98 98 98 96 93 90 88 87 83 82 80 77 72 70
31 32 34 44 60 73 87 93 93 96 97 97 97 97 96 95 94 93 92 91 91 90 95 96 97 97 97 97 97 97 97 98 98 96 95 95 95 95 95 94 93 92 90 89 87 87 88 86 88 86 84 80 79 78
20 22 28 34 42 61 78 86 91 93 93 89 87 88 88 83 82 82 82 78 80 89 92 95 97 97 97 97 97 97 97 98 97 94 91 89 89 88 86 84 83 85 88 88 87 85 86 86 87 88 88 88 87 85
11 12 13 15 23 37 50 54 57 58 62 61 58 58 61 65 63 59 59 62 70 76 79 82 84 87 86 85 84 86 85 86 85 84 82 80 80 81 84 86 86 87 87 83 81 84 87 88 90 92 93 94 92 89
6 7 9 10 12 18 30 32 33 37 43 42 36 40 48 51 53 43 52 58 63 66 67 66 65 65 64 63 63 63 63 64 65 67 70 70 75 77 77 78 81 87 87 87 88 89 90 91 89 87 87 84 80 75
9 13 17 21 23 30 29 33 34 34 36 39 39 42 45 48 43 43 52 54 56 56 57 59 58 57 58 59 59 61 62 64 64 66 68 70 72 74 77 79 80 81 82 85 84 83 81 79 78 76 74 70 60 50
16 27 25 31 31 31 35 39 39 39 41 44 44 47 50 48 49 54 57 59 60 61 62 62 63 63 63 64 65 65 66 68 69 70 73 74 76 78 79 80 79 79 76 75 73 71 70 68 64 56 45 39 37 39
34 39 37 37 41 41 41 44 44 45 47 47 51 51 55 56 59 65 66 67 68 69 71 72 71 71 71 71 71 72 71 69 68 66 65 66 66 65 64 62 61 60 57 54 49 44 39 37 36 37 39 41 43 45
44 46 46 46 46 43 45 46 46 48 53 56 58 62 64 65 69 73 75 77 78 77 76 75 74 71 69 67 66 65 62 60 59 58 58 57 56 54 51 48 47 47 46 43 40 38 37 38 38 40 41 43 44 45
51 53 51 47 44 45 49 50 52 56 57 58 60 59 63 65 67 68 68 68 67 67 66 66 66 66 65 62 60 60 58 55 51 53 54 56 56 56 54 51 48 45 43 41 41 42 44 45 47 48 48 48 47 46
51 46 40 40 37 38 45 49 51 52 52 53 54 57 59 62 64 65 65 65 65 65 63 62 61 62 61 58 54 50 50 53 54 55 53 52 51 50 48 47 47 47 48 48 48 48 48 46 45 44 44 43 43 43
45 44 40 38 41 43 44 43 44 44 45 44 46 51 53 55 57 58 59 59 59 59 60 59 59 60 63 62 58 59 60 58 55 54 54 52 50 49 48 45 43 40 39 38 39 40 42 45 47 50 52 54 56 58
37 33 33 35 38 38 40 41 42 43 45 44 44 45 49 53 55 57 58 58 60 62 63 64 63 61 60 59 59 59 58 56 53 52 50 46 40 36 35 36 38 42 45 48 51 53 55 57 61 63 65 67 69 70
30 33 35 40 43 43 45 48 49 49 51 50 51 52 56 56 59 61 62 63 65 67 68 67 66 66 66 65 62 56 49 42 37 34 34 37 40 42 44 46 47 47 47 48 50 51 53 55 58 61 64 68 70 72
36 34 36 40 47 47 43 46 53 54 57 59 61 63 65 66 68 69 70 69 69 70 68 66 64 58 49 42 39 38 38 38 39 39 38 37 36 36 37 39 41 44 47 50 53 56 59 62 65 68 70 73 76 77